Time,TemperatureF,DewpointF,PressureIn,WindDirection,WindDirectionDegrees,WindSpeedMPH,WindSpeedGustMPH,Humidity,HourlyPrecipIn,Conditions,Clouds,dailyrainin,SoftwareType,DateUTC
2015-07-05 00:03:00,85.6,56.3,29.73,WNW,296,0.0,0.0,37,0.00,,,0.00,Wunderground v.1.15,2015-07-05 07:03:00,
2015-07-05 00:08:00,85.6,57.1,29.73,WNW,296,0.0,0.0,38,0.00,,,0.00,Wunderground v.1.15,2015-07-05 07:08:00,
2015-07-05 00:14:00,85.7,57.2,29.73,WNW,296,0.0,0.0,38,0.00,,,0.00,Wunderground v.1.15,2015-07-05 07:14:00,
2015-07-05 00:20:00,85.7,57.2,29.73,WNW,296,0.0,0.0,38,0.00,,,0.00,Wunderground v.1.15,2015-07-05 07:20:00,
2015-07-05 00:26:00,85.7,57.2,29.73,WNW,296,0.0,0.0,38,0.00,,,0.00,Wunderground v.1.15,2015-07-05 07:26:00,
2015-07-05 00:31:00,85.6,57.1,29.73,WNW,296,0.0,0.0,38,0.00,,,0.00,Wunderground v.1.15,2015-07-05 07:31:00,
2015-07-05 00:37:00,85.5,57.0,29.73,WNW,296,0.0,0.0,38,0.00,,,0.00,Wunderground v.1.15,2015-07-05 07:37:00,
2015-07-05 00:43:00,85.4,56.9,29.73,WNW,296,0.0,0.0,38,0.00,,,0.00,Wunderground v.1.15,2015-07-05 07:43:00,
2015-07-05 00:49:00,85.2,56.7,29.73,WNW,296,0.0,0.0,38,0.00,,,0.00,Wunderground v.1.15,2015-07-05 07:49:00,
2015-07-05 00:55:00,85.0,56.5,29.73,WNW,296,0.0,0.0,38,0.00,,,0.00,Wunderground v.1.15,2015-07-05 07:55:00,
2015-07-05 01:01:00,84.7,59.1,29.73,WNW,296,3.0,3.0,42,0.00,,,0.00,Wunderground v.1.15,2015-07-05 08:01:00,
2015-07-05 01:06:00,84.7,59.1,29.73,WNW,296,1.0,3.0,42,0.00,,,0.00,Wunderground v.1.15,2015-07-05 08:06:00,
2015-07-05 01:12:00,84.8,59.2,29.72,WNW,296,0.0,0.0,42,0.00,,,0.00,Wunderground v.1.15,2015-07-05 08:12:00,
2015-07-05 01:18:00,85.0,59.3,29.72,WNW,296,2.0,2.0,42,0.00,,,0.00,Wunderground v.1.15,2015-07-05 08:18:00,
2015-07-05 01:24:00,85.3,60.3,29.72,WNW,295,3.0,4.0,43,0.00,,,0.00,Wunderground v.1.15,2015-07-05 08:24:00,
2015-07-05 01:30:00,85.5,59.8,29.73,WNW,293,3.0,3.0,42,0.00,,,0.00,Wunderground v.1.15,2015-07-05 08:30:00,
2015-07-05 01:35:00,85.6,59.9,29.73,WNW,292,4.0,5.0,42,0.00,,,0.00,Wunderground v.1.15,2015-07-05 08:35:00,
2015-07-05 01:41:00,85.7,60.0,29.73,WNW,292,0.0,3.0,42,0.00,,,0.00,Wunderground v.1.15,2015-07-05 08:41:00,
2015-07-05 01:47:00,85.7,60.0,29.72,WNW,292,0.0,3.0,42,0.00,,,0.00,Wunderground v.1.15,2015-07-05 08:47:00,
2015-07-05 01:53:00,85.6,59.9,29.72,WNW,292,0.0,0.0,42,0.00,,,0.00,Wunderground v.1.15,2015-07-05 08:53:00,
2015-07-05 01:58:00,85.5,59.8,29.72,WNW,292,0.0,0.0,42,0.00,,,0.00,Wunderground v.1.15,2015-07-05 08:58:00,
2015-07-05 02:03:00,85.4,59.7,29.72,WNW,292,0.0,0.0,42,0.00,,,0.00,Wunderground v.1.15,2015-07-05 09:03:00,
2015-07-05 02:08:00,85.1,59.4,29.73,WNW,292,0.0,0.0,42,0.00,,,0.00,Wunderground v.1.15,2015-07-05 09:08:00,
2015-07-05 02:13:00,84.9,59.2,29.72,WNW,292,0.0,2.0,42,0.00,,,0.00,Wunderground v.1.15,2015-07-05 09:13:00,
2015-07-05 02:18:00,84.8,59.2,29.73,WNW,292,0.0,2.0,42,0.00,,,0.00,Wunderground v.1.15,2015-07-05 09:18:00,
2015-07-05 02:23:00,84.7,59.7,29.73,WNW,292,0.0,0.0,43,0.00,,,0.00,Wunderground v.1.15,2015-07-05 09:23:00,
2015-07-05 02:28:00,84.6,59.6,29.73,WNW,292,0.0,0.0,43,0.00,,,0.00,Wunderground v.1.15,2015-07-05 09:28:00,
2015-07-05 02:33:00,84.5,59.5,29.73,WNW,292,0.0,0.0,43,0.00,,,0.00,Wunderground v.1.15,2015-07-05 09:33:00,
2015-07-05 02:38:00,84.5,59.5,29.73,WNW,292,0.0,0.0,43,0.00,,,0.00,Wunderground v.1.15,2015-07-05 09:38:00,
2015-07-05 02:43:00,84.3,58.7,29.73,WNW,292,0.0,0.0,42,0.00,,,0.00,Wunderground v.1.15,2015-07-05 09:43:00,
2015-07-05 02:48:00,84.1,59.2,29.73,WNW,292,0.0,0.0,43,0.00,,,0.00,Wunderground v.1.15,2015-07-05 09:48:00,
2015-07-05 02:53:00,84.1,59.2,29.74,WNW,292,0.0,0.0,43,0.00,,,0.00,Wunderground v.1.15,2015-07-05 09:53:00,
2015-07-05 02:58:00,84.0,59.1,29.74,WNW,292,0.0,0.0,43,0.00,,,0.00,Wunderground v.1.15,2015-07-05 09:58:00,
2015-07-05 03:03:00,83.9,59.0,29.74,WNW,292,0.0,0.0,43,0.00,,,0.00,Wunderground v.1.15,2015-07-05 10:03:00,
2015-07-05 03:08:00,83.8,58.9,29.74,WNW,292,0.0,0.0,43,0.00,,,0.00,Wunderground v.1.15,2015-07-05 10:08:00,
2015-07-05 03:13:00,83.6,58.7,29.74,WNW,292,0.0,0.0,43,0.00,,,0.00,Wunderground v.1.15,2015-07-05 10:13:00,
2015-07-05 03:18:00,83.4,58.6,29.74,WNW,292,0.0,0.0,43,0.00,,,0.00,Wunderground v.1.15,2015-07-05 10:18:00,
2015-07-05 03:23:00,83.3,59.1,29.74,WNW,292,0.0,0.0,44,0.00,,,0.00,Wunderground v.1.15,2015-07-05 10:23:00,
2015-07-05 03:28:00,83.2,59.0,29.74,WNW,292,0.0,0.0,44,0.00,,,0.00,Wunderground v.1.15,2015-07-05 10:28:00,
2015-07-05 03:33:00,83.0,58.8,29.74,WNW,292,0.0,1.0,44,0.00,,,0.00,Wunderground v.1.15,2015-07-05 10:33:00,
2015-07-05 03:38:00,82.8,59.3,29.74,WNW,292,0.0,1.0,45,0.00,,,0.00,Wunderground v.1.15,2015-07-05 10:38:00,
2015-07-05 03:43:00,82.7,59.2,29.74,WNW,292,0.0,0.0,45,0.00,,,0.00,Wunderground v.1.15,2015-07-05 10:43:00,
2015-07-05 03:48:00,82.6,59.7,29.74,WNW,292,0.0,0.0,46,0.00,,,0.00,Wunderground v.1.15,2015-07-05 10:48:00,
2015-07-05 03:53:00,82.5,59.6,29.74,WNW,292,0.0,0.0,46,0.00,,,0.00,Wunderground v.1.15,2015-07-05 10:53:00,
2015-07-05 03:58:00,82.5,59.6,29.74,WNW,292,0.0,0.0,46,0.00,,,0.00,Wunderground v.1.15,2015-07-05 10:58:00,
2015-07-05 04:03:00,82.4,59.5,29.75,WNW,292,0.0,0.0,46,0.00,,,0.00,Wunderground v.1.15,2015-07-05 11:03:00,
2015-07-05 04:08:00,82.3,59.4,29.75,WNW,292,0.0,0.0,46,0.00,,,0.00,Wunderground v.1.15,2015-07-05 11:08:00,
2015-07-05 04:13:00,82.3,60.1,29.75,WNW,292,0.0,0.0,47,0.00,,,0.00,Wunderground v.1.15,2015-07-05 11:13:00,
2015-07-05 04:18:00,82.2,60.0,29.75,WNW,292,0.0,0.0,47,0.00,,,0.00,Wunderground v.1.15,2015-07-05 11:18:00,
2015-07-05 04:23:00,82.1,59.9,29.75,WNW,292,0.0,0.0,47,0.00,,,0.00,Wunderground v.1.15,2015-07-05 11:23:00,
2015-07-05 04:28:00,82.0,59.8,29.75,WNW,292,0.0,0.0,47,0.00,,,0.00,Wunderground v.1.15,2015-07-05 11:28:00,
2015-07-05 04:33:00,81.9,59.7,29.75,WNW,292,0.0,0.0,47,0.00,,,0.00,Wunderground v.1.15,2015-07-05 11:33:00,
2015-07-05 04:38:00,81.8,60.2,29.75,WNW,292,0.0,0.0,48,0.00,,,0.00,Wunderground v.1.15,2015-07-05 11:38:00,
2015-07-05 04:43:00,81.6,60.0,29.76,WNW,292,0.0,0.0,48,0.00,,,0.00,Wunderground v.1.15,2015-07-05 11:43:00,
2015-07-05 04:48:00,81.5,59.9,29.76,WNW,292,0.0,0.0,48,0.00,,,0.00,Wunderground v.1.15,2015-07-05 11:48:00,
2015-07-05 04:53:00,81.3,60.3,29.76,WNW,292,0.0,0.0,49,0.00,,,0.00,Wunderground v.1.15,2015-07-05 11:53:00,
2015-07-05 04:58:00,81.2,60.2,29.76,WNW,292,0.0,0.0,49,0.00,,,0.00,Wunderground v.1.15,2015-07-05 11:58:00,
2015-07-05 05:04:00,81.0,60.0,29.76,WNW,292,0.0,0.0,49,0.00,,,0.00,Wunderground v.1.15,2015-07-05 12:04:00,
2015-07-05 05:09:00,80.8,60.4,29.76,WNW,292,0.0,0.0,50,0.00,,,0.00,Wunderground v.1.15,2015-07-05 12:09:00,
2015-07-05 05:14:00,80.6,59.7,29.76,WNW,292,0.0,0.0,49,0.00,,,0.00,Wunderground v.1.15,2015-07-05 12:14:00,
2015-07-05 05:18:00,80.4,59.5,29.76,WNW,292,0.0,0.0,49,0.00,,,0.00,Wunderground v.1.15,2015-07-05 12:18:00,
2015-07-05 05:23:00,80.2,59.9,29.77,WNW,292,0.0,0.0,50,0.00,,,0.00,Wunderground v.1.15,2015-07-05 12:23:00,
2015-07-05 05:28:00,80.1,59.8,29.77,WNW,292,0.0,0.0,50,0.00,,,0.00,Wunderground v.1.15,2015-07-05 12:28:00,
2015-07-05 05:33:00,80.1,60.3,29.77,WNW,292,0.0,0.0,51,0.00,,,0.00,Wunderground v.1.15,2015-07-05 12:33:00,
2015-07-05 05:38:00,80.0,60.2,29.77,WNW,292,0.0,0.0,51,0.00,,,0.00,Wunderground v.1.15,2015-07-05 12:38:00,
2015-07-05 05:44:00,79.9,60.7,29.77,WNW,292,0.0,0.0,52,0.00,,,0.00,Wunderground v.1.15,2015-07-05 12:44:00,
2015-07-05 05:49:00,79.8,61.1,29.77,WNW,292,0.0,0.0,53,0.00,,,0.00,Wunderground v.1.15,2015-07-05 12:49:00,
2015-07-05 05:54:00,79.7,61.1,29.77,WNW,292,0.0,0.0,53,0.00,,,0.00,Wunderground v.1.15,2015-07-05 12:54:00,
2015-07-05 06:04:00,79.7,61.6,29.78,WNW,292,0.0,0.0,54,0.00,,,0.00,Wunderground v.1.15,2015-07-05 13:04:00,
2015-07-05 06:09:00,79.8,61.7,29.78,WNW,292,0.0,0.0,54,0.00,,,0.00,Wunderground v.1.15,2015-07-05 13:09:00,
2015-07-05 06:14:00,79.8,61.7,29.78,WNW,292,0.0,0.0,54,0.00,,,0.00,Wunderground v.1.15,2015-07-05 13:14:00,
2015-07-05 06:19:00,79.9,62.3,29.78,WNW,292,0.0,0.0,55,0.00,,,0.00,Wunderground v.1.15,2015-07-05 13:19:00,
2015-07-05 06:24:00,80.0,61.3,29.79,WNW,292,0.0,0.0,53,0.00,,,0.00,Wunderground v.1.15,2015-07-05 13:24:00,
2015-07-05 06:29:00,80.2,61.5,29.79,WNW,292,0.0,1.0,53,0.00,,,0.00,Wunderground v.1.15,2015-07-05 13:29:00,
2015-07-05 06:34:00,80.4,62.2,29.79,WNW,292,0.0,0.0,54,0.00,,,0.00,Wunderground v.1.15,2015-07-05 13:34:00,
2015-07-05 06:39:00,80.6,62.4,29.79,WNW,292,0.0,0.0,54,0.00,,,0.00,Wunderground v.1.15,2015-07-05 13:39:00,
2015-07-05 06:44:00,80.8,62.6,29.79,WNW,292,0.0,0.0,54,0.00,,,0.00,Wunderground v.1.15,2015-07-05 13:44:00,
2015-07-05 06:49:00,81.0,62.8,29.79,WNW,292,0.0,0.0,54,0.00,,,0.00,Wunderground v.1.15,2015-07-05 13:49:00,
2015-07-05 06:54:00,81.2,63.0,29.79,WNW,292,0.0,0.0,54,0.00,,,0.00,Wunderground v.1.15,2015-07-05 13:54:00,
2015-07-05 06:59:00,81.4,62.6,29.79,WNW,292,0.0,0.0,53,0.00,,,0.00,Wunderground v.1.15,2015-07-05 13:59:00,
2015-07-05 07:04:00,81.6,62.8,29.79,WNW,292,0.0,0.0,53,0.00,,,0.00,Wunderground v.1.15,2015-07-05 14:04:00,
2015-07-05 07:09:00,81.8,63.0,29.80,WNW,292,0.0,0.0,53,0.00,,,0.00,Wunderground v.1.15,2015-07-05 14:09:00,
2015-07-05 07:14:00,82.1,63.3,29.80,WNW,292,0.0,0.0,53,0.00,,,0.00,Wunderground v.1.15,2015-07-05 14:14:00,
2015-07-05 07:19:00,82.3,62.9,29.80,WNW,292,0.0,0.0,52,0.00,,,0.00,Wunderground v.1.15,2015-07-05 14:19:00,
2015-07-05 07:24:00,82.6,63.2,29.80,WNW,292,0.0,0.0,52,0.00,,,0.00,Wunderground v.1.15,2015-07-05 14:24:00,
2015-07-05 07:29:00,82.8,63.4,29.80,WNW,292,0.0,0.0,52,0.00,,,0.00,Wunderground v.1.15,2015-07-05 14:29:00,
2015-07-05 07:39:00,83.2,63.7,29.80,North,360,1.0,3.0,52,0.00,,,0.00,Wunderground v.1.15,2015-07-05 14:39:00,
2015-07-05 07:44:00,83.4,63.9,29.81,North,360,0.0,3.0,52,0.00,,,0.00,Wunderground v.1.15,2015-07-05 14:44:00,
2015-07-05 07:49:00,83.5,63.5,29.81,North,360,0.0,4.0,51,0.00,,,0.00,Wunderground v.1.15,2015-07-05 14:49:00,
2015-07-05 07:54:00,83.7,63.7,29.81,North,360,0.0,1.0,51,0.00,,,0.00,Wunderground v.1.15,2015-07-05 14:54:00,
2015-07-05 07:59:00,83.9,63.8,29.81,North,360,3.0,3.0,51,0.00,,,0.00,Wunderground v.1.15,2015-07-05 14:59:00,
2015-07-05 08:04:00,84.1,64.0,29.81,North,360,0.0,4.0,51,0.00,,,0.00,Wunderground v.1.15,2015-07-05 15:04:00,
2015-07-05 08:09:00,84.3,64.2,29.81,North,360,0.0,4.0,51,0.00,,,0.00,Wunderground v.1.15,2015-07-05 15:09:00,
2015-07-05 08:14:00,84.5,64.4,29.81,North,360,0.0,4.0,51,0.00,,,0.00,Wunderground v.1.15,2015-07-05 15:14:00,
2015-07-05 08:19:00,84.7,64.0,29.81,North,360,0.0,4.0,50,0.00,,,0.00,Wunderground v.1.15,2015-07-05 15:19:00,
2015-07-05 08:24:00,85.0,63.7,29.81,North,360,0.0,4.0,49,0.00,,,0.00,Wunderground v.1.15,2015-07-05 15:24:00,
2015-07-05 08:29:00,85.2,64.5,29.81,North,5,4.0,5.0,50,0.00,,,0.00,Wunderground v.1.15,2015-07-05 15:29:00,
2015-07-05 08:34:00,85.5,64.2,29.81,North,5,0.0,4.0,49,0.00,,,0.00,Wunderground v.1.15,2015-07-05 15:34:00,
2015-07-05 08:39:00,85.7,64.3,29.81,North,5,0.0,4.0,49,0.00,,,0.00,Wunderground v.1.15,2015-07-05 15:39:00,
2015-07-05 08:44:00,85.7,63.8,29.82,North,5,0.0,3.0,48,0.00,,,0.00,Wunderground v.1.15,2015-07-05 15:44:00,
2015-07-05 08:49:00,85.8,63.8,29.82,North,5,1.0,1.0,48,0.00,,,0.00,Wunderground v.1.15,2015-07-05 15:49:00,
2015-07-05 08:54:00,85.8,63.8,29.82,North,5,0.0,3.0,48,0.00,,,0.00,Wunderground v.1.15,2015-07-05 15:54:00,
2015-07-05 09:00:00,85.8,63.8,29.82,North,5,0.0,0.0,48,0.00,,,0.00,Wunderground v.1.15,2015-07-05 16:00:00,
2015-07-05 09:05:00,85.9,63.9,29.82,North,5,2.0,4.0,48,0.00,,,0.00,Wunderground v.1.15,2015-07-05 16:05:00,
2015-07-05 09:10:00,85.8,63.2,29.82,North,5,0.0,1.0,47,0.00,,,0.00,Wunderground v.1.15,2015-07-05 16:10:00,
2015-07-05 09:15:00,85.9,63.3,29.82,North,5,0.0,4.0,47,0.00,,,0.00,Wunderground v.1.15,2015-07-05 16:15:00,
2015-07-05 09:20:00,86.0,63.4,29.82,North,5,0.0,0.0,47,0.00,,,0.00,Wunderground v.1.15,2015-07-05 16:20:00,
2015-07-05 09:25:00,86.3,63.7,29.82,North,5,0.0,1.0,47,0.00,,,0.00,Wunderground v.1.15,2015-07-05 16:25:00,
2015-07-05 09:30:00,86.4,63.8,29.82,North,5,0.0,0.0,47,0.00,,,0.00,Wunderground v.1.15,2015-07-05 16:30:00,
2015-07-05 09:35:00,86.5,63.9,29.82,North,5,0.0,0.0,47,0.00,,,0.00,Wunderground v.1.15,2015-07-05 16:35:00,
2015-07-05 09:40:00,86.7,63.4,29.81,North,5,0.0,0.0,46,0.00,,,0.00,Wunderground v.1.15,2015-07-05 16:40:00,
2015-07-05 09:45:00,86.7,64.1,29.81,North,5,0.0,2.0,47,0.00,,,0.00,Wunderground v.1.15,2015-07-05 16:45:00,
2015-07-05 09:50:00,86.9,64.2,29.82,North,11,0.0,1.0,47,0.00,,,0.00,Wunderground v.1.15,2015-07-05 16:50:00,
2015-07-05 09:55:00,86.9,64.2,29.81,North,11,2.0,5.0,47,0.00,,,0.00,Wunderground v.1.15,2015-07-05 16:55:00,
2015-07-05 10:00:00,87.0,64.9,29.82,NNE,18,0.0,2.0,48,0.00,,,0.00,Wunderground v.1.15,2015-07-05 17:00:00,
2015-07-05 10:05:00,87.1,64.4,29.82,NNE,22,3.0,6.0,47,0.00,,,0.00,Wunderground v.1.15,2015-07-05 17:05:00,
2015-07-05 10:10:00,87.1,64.4,29.82,NNE,25,0.0,3.0,47,0.00,,,0.00,Wunderground v.1.15,2015-07-05 17:10:00,
2015-07-05 10:15:00,87.0,64.3,29.82,NNE,25,0.0,3.0,47,0.00,,,0.00,Wunderground v.1.15,2015-07-05 17:15:00,
2015-07-05 10:20:00,87.1,64.4,29.82,NNE,25,2.0,3.0,47,0.00,,,0.00,Wunderground v.1.15,2015-07-05 17:20:00,
2015-07-05 10:25:00,87.1,64.4,29.82,NNE,25,3.0,3.0,47,0.00,,,0.00,Wunderground v.1.15,2015-07-05 17:25:00,
2015-07-05 10:30:00,87.3,64.6,29.82,NNE,29,4.0,4.0,47,0.00,,,0.00,Wunderground v.1.15,2015-07-05 17:30:00,
2015-07-05 10:35:00,87.5,64.2,29.82,NNE,30,3.0,6.0,46,0.00,,,0.00,Wunderground v.1.15,2015-07-05 17:35:00,
2015-07-05 10:40:00,87.8,64.4,29.82,NNE,30,2.0,4.0,46,0.00,,,0.00,Wunderground v.1.15,2015-07-05 17:40:00,
2015-07-05 10:45:00,88.0,64.6,29.82,NNE,32,3.0,6.0,46,0.00,,,0.00,Wunderground v.1.15,2015-07-05 17:45:00,
2015-07-05 10:50:00,88.2,64.2,29.82,NE,38,2.0,7.0,45,0.00,,,0.00,Wunderground v.1.15,2015-07-05 17:50:00,
2015-07-05 10:55:00,88.4,64.4,29.82,NE,39,3.0,7.0,45,0.00,,,0.00,Wunderground v.1.15,2015-07-05 17:55:00,
2015-07-05 11:00:00,88.6,64.5,29.82,NE,42,1.0,5.0,45,0.00,,,0.00,Wunderground v.1.15,2015-07-05 18:00:00,
2015-07-05 11:05:00,88.9,64.8,29.82,NE,43,3.0,6.0,45,0.00,,,0.00,Wunderground v.1.15,2015-07-05 18:05:00,
2015-07-05 11:10:00,89.2,64.4,29.82,NE,46,4.0,7.0,44,0.00,,,0.00,Wunderground v.1.15,2015-07-05 18:10:00,
2015-07-05 11:15:00,89.1,64.3,29.82,ENE,62,0.0,11.0,44,0.00,,,0.00,Wunderground v.1.15,2015-07-05 18:15:00,
2015-07-05 11:20:00,89.3,64.5,29.82,ENE,62,4.0,4.0,44,0.00,,,0.00,Wunderground v.1.15,2015-07-05 18:20:00,
2015-07-05 11:25:00,89.9,64.4,29.82,ENE,70,7.0,9.0,43,0.00,,,0.00,Wunderground v.1.15,2015-07-05 18:25:00,
2015-07-05 11:30:00,90.4,64.9,29.82,ENE,71,9.0,9.0,43,0.00,,,0.00,Wunderground v.1.15,2015-07-05 18:30:00,
2015-07-05 11:35:00,90.2,64.0,29.82,ENE,75,0.0,9.0,42,0.00,,,0.00,Wunderground v.1.15,2015-07-05 18:35:00,
2015-07-05 11:40:00,90.2,64.0,29.82,ENE,75,5.0,5.0,42,0.00,,,0.00,Wunderground v.1.15,2015-07-05 18:40:00,
2015-07-05 11:46:00,89.9,63.7,29.82,ENE,75,0.0,5.0,42,0.00,,,0.00,Wunderground v.1.15,2015-07-05 18:46:00,
2015-07-05 11:51:00,89.5,64.0,29.82,ENE,75,2.0,2.0,43,0.00,,,0.00,Wunderground v.1.15,2015-07-05 18:51:00,
2015-07-05 11:56:00,89.3,63.9,29.82,ENE,76,1.0,8.0,43,0.00,,,0.00,Wunderground v.1.15,2015-07-05 18:56:00,
2015-07-05 12:01:00,88.9,63.5,29.81,ENE,76,0.0,3.0,43,0.00,,,0.00,Wunderground v.1.15,2015-07-05 19:01:00,
2015-07-05 12:06:00,88.6,63.9,29.82,ENE,78,1.0,7.0,44,0.00,,,0.00,Wunderground v.1.15,2015-07-05 19:06:00,
2015-07-05 12:11:00,88.4,63.7,29.81,ENE,78,4.0,4.0,44,0.00,,,0.00,Wunderground v.1.15,2015-07-05 19:11:00,
2015-07-05 12:16:00,88.4,63.7,29.81,ENE,78,5.0,5.0,44,0.00,,,0.00,Wunderground v.1.15,2015-07-05 19:16:00,
2015-07-05 12:21:00,88.5,63.8,29.81,ENE,78,0.0,4.0,44,0.00,,,0.00,Wunderground v.1.15,2015-07-05 19:21:00,
2015-07-05 12:26:00,88.6,63.9,29.81,ENE,78,3.0,5.0,44,0.00,,,0.00,Wunderground v.1.15,2015-07-05 19:26:00,
2015-07-05 12:31:00,88.4,63.7,29.80,ENE,78,4.0,7.0,44,0.00,,,0.00,Wunderground v.1.15,2015-07-05 19:31:00,
2015-07-05 12:36:00,88.3,63.6,29.80,ENE,78,0.0,7.0,44,0.00,,,0.00,Wunderground v.1.15,2015-07-05 19:36:00,
2015-07-05 12:41:00,88.3,63.6,29.80,ENE,78,0.0,2.0,44,0.00,,,0.00,Wunderground v.1.15,2015-07-05 19:41:00,
2015-07-05 12:46:00,88.3,63.6,29.80,ENE,78,0.0,4.0,44,0.00,,,0.00,Wunderground v.1.15,2015-07-05 19:46:00,
2015-07-05 12:51:00,88.3,63.6,29.79,East,79,0.0,7.0,44,0.00,,,0.00,Wunderground v.1.15,2015-07-05 19:51:00,
2015-07-05 12:56:00,88.2,63.5,29.79,East,79,0.0,7.0,44,0.00,,,0.00,Wunderground v.1.15,2015-07-05 19:56:00,
2015-07-05 13:01:00,88.1,63.4,29.79,East,79,1.0,3.0,44,0.00,,,0.00,Wunderground v.1.15,2015-07-05 20:01:00,
2015-07-05 13:06:00,88.0,63.4,29.79,East,79,0.0,6.0,44,0.00,,,0.00,Wunderground v.1.15,2015-07-05 20:06:00,
2015-07-05 13:11:00,88.0,63.4,29.79,East,79,0.0,1.0,44,0.00,,,0.00,Wunderground v.1.15,2015-07-05 20:11:00,
2015-07-05 13:16:00,87.9,63.3,29.79,East,79,1.0,6.0,44,0.00,,,0.00,Wunderground v.1.15,2015-07-05 20:16:00,
2015-07-05 13:21:00,87.8,63.2,29.79,East,79,1.0,2.0,44,0.00,,,0.00,Wunderground v.1.15,2015-07-05 20:21:00,
2015-07-05 13:26:00,87.8,63.8,29.79,East,79,1.0,2.0,45,0.00,,,0.00,Wunderground v.1.15,2015-07-05 20:26:00,
2015-07-05 13:31:00,87.7,63.7,29.79,East,82,5.0,7.0,45,0.00,,,0.00,Wunderground v.1.15,2015-07-05 20:31:00,
2015-07-05 13:36:00,87.4,64.1,29.79,East,82,2.0,7.0,46,0.00,,,0.00,Wunderground v.1.15,2015-07-05 20:36:00,
2015-07-05 13:41:00,87.1,64.4,29.79,East,98,6.0,10.0,47,0.00,,,0.00,Wunderground v.1.15,2015-07-05 20:41:00,
2015-07-05 13:47:00,86.7,64.7,29.78,WSW,257,5.0,10.0,48,0.00,,,0.00,Wunderground v.1.15,2015-07-05 20:47:00,
2015-07-05 13:52:00,86.5,64.5,29.78,West,262,3.0,8.0,48,0.00,,,0.00,Wunderground v.1.15,2015-07-05 20:52:00,
2015-07-05 13:57:00,86.4,65.0,29.78,WSW,255,8.0,8.0,49,0.00,,,0.00,Wunderground v.1.15,2015-07-05 20:57:00,
2015-07-05 14:02:00,85.6,64.8,29.79,West,260,4.0,8.0,50,0.00,,,0.00,Wunderground v.1.15,2015-07-05 21:02:00,
2015-07-05 14:07:00,84.7,64.6,29.79,WSW,247,8.0,11.0,51,0.00,,,0.00,Wunderground v.1.15,2015-07-05 21:07:00,
2015-07-05 14:12:00,83.6,63.6,29.78,WSW,250,8.0,20.0,51,0.00,,,0.00,Wunderground v.1.15,2015-07-05 21:12:00,
2015-07-05 14:17:00,82.4,63.5,29.78,West,263,8.0,20.0,53,0.00,,,0.00,Wunderground v.1.15,2015-07-05 21:17:00,
2015-07-05 14:22:00,81.7,64.0,29.79,WSW,242,5.0,15.0,55,0.00,,,0.00,Wunderground v.1.15,2015-07-05 21:22:00,
2015-07-05 14:27:00,81.1,62.9,29.79,WSW,244,1.0,18.0,54,0.00,,,0.00,Wunderground v.1.15,2015-07-05 21:27:00,
2015-07-05 14:32:00,80.5,62.3,29.79,SW,234,1.0,14.0,54,0.00,,,0.00,Wunderground v.1.15,2015-07-05 21:32:00,
2015-07-05 14:37:00,80.2,63.1,29.79,West,277,2.0,15.0,56,0.00,,,0.00,Wunderground v.1.15,2015-07-05 21:37:00,
2015-07-05 14:42:00,80.3,63.7,29.79,WSW,246,9.0,16.0,57,0.00,,,0.00,Wunderground v.1.15,2015-07-05 21:42:00,
2015-07-05 14:47:00,80.3,63.7,29.80,SW,225,15.0,16.0,57,0.00,,,0.00,Wunderground v.1.15,2015-07-05 21:47:00,
2015-07-05 14:52:00,80.5,64.4,29.80,West,259,12.0,12.0,58,0.00,,,0.00,Wunderground v.1.15,2015-07-05 21:52:00,
2015-07-05 14:57:00,80.4,64.8,29.80,WSW,242,7.0,13.0,59,0.00,,,0.00,Wunderground v.1.15,2015-07-05 21:57:00,
2015-07-05 15:02:00,79.9,65.2,29.81,WSW,252,7.0,15.0,61,0.00,,,0.00,Wunderground v.1.15,2015-07-05 22:02:00,
2015-07-05 15:07:00,79.4,65.2,29.81,WSW,257,5.0,15.0,62,0.00,,,0.00,Wunderground v.1.15,2015-07-05 22:07:00,
2015-07-05 15:12:00,79.3,66.1,29.81,West,261,9.0,12.0,64,0.00,,,0.00,Wunderground v.1.15,2015-07-05 22:12:00,
2015-07-05 15:17:00,79.2,66.0,29.81,West,277,15.0,15.0,64,0.00,,,0.00,Wunderground v.1.15,2015-07-05 22:17:00,
2015-07-05 15:22:00,78.2,66.8,29.81,WNW,286,7.0,18.0,68,0.00,,,0.00,Wunderground v.1.15,2015-07-05 22:22:00,
2015-07-05 15:27:00,77.2,65.8,29.82,WNW,288,7.0,18.0,68,0.00,,,0.00,Wunderground v.1.15,2015-07-05 22:27:00,
2015-07-05 15:32:00,76.7,65.3,29.83,NW,324,6.0,14.0,68,0.00,,,0.00,Wunderground v.1.15,2015-07-05 22:32:00,
2015-07-05 15:37:00,76.5,65.6,29.83,NNE,12,5.0,14.0,69,0.00,,,0.00,Wunderground v.1.15,2015-07-05 22:37:00,
2015-07-05 15:42:00,76.4,66.3,29.84,NNE,30,4.0,9.0,71,0.00,,,0.00,Wunderground v.1.15,2015-07-05 22:42:00,
2015-07-05 15:47:00,76.1,66.4,29.84,NNE,28,4.0,10.0,72,0.00,,,0.00,Wunderground v.1.15,2015-07-05 22:47:00,
2015-07-05 15:52:00,75.8,66.5,29.85,NNE,30,0.0,3.0,73,0.00,,,0.00,Wunderground v.1.15,2015-07-05 22:52:00,
2015-07-05 15:57:00,75.7,66.4,29.85,NNE,27,0.0,3.0,73,0.00,,,0.00,Wunderground v.1.15,2015-07-05 22:57:00,
2015-07-05 16:02:00,75.8,66.5,29.84,North,9,2.0,4.0,73,0.00,,,0.00,Wunderground v.1.15,2015-07-05 23:02:00,
2015-07-05 16:07:00,75.6,66.7,29.84,North,9,0.0,4.0,74,0.00,,,0.00,Wunderground v.1.15,2015-07-05 23:07:00,
2015-07-05 16:12:00,75.5,66.2,29.84,North,9,0.0,1.0,73,0.00,,,0.00,Wunderground v.1.15,2015-07-05 23:12:00,
2015-07-05 16:17:00,75.3,66.0,29.84,North,5,0.0,2.0,73,0.00,,,0.00,Wunderground v.1.15,2015-07-05 23:17:00,
2015-07-05 16:22:00,75.3,66.0,29.83,North,5,0.0,2.0,73,0.00,,,0.00,Wunderground v.1.15,2015-07-05 23:22:00,
2015-07-05 16:27:00,75.2,65.9,29.83,North,355,0.0,3.0,73,0.00,,,0.00,Wunderground v.1.15,2015-07-05 23:27:00,
2015-07-05 16:32:00,75.2,65.9,29.83,North,355,1.0,2.0,73,0.00,,,0.00,Wunderground v.1.15,2015-07-05 23:32:00,
2015-07-05 16:37:00,75.2,65.9,29.83,North,355,0.0,2.0,73,0.00,,,0.00,Wunderground v.1.15,2015-07-05 23:37:00,
2015-07-05 16:42:00,75.2,65.9,29.82,North,355,0.0,4.0,73,0.00,,,0.00,Wunderground v.1.15,2015-07-05 23:42:00,
2015-07-05 16:47:00,75.2,65.9,29.82,NNW,347,0.0,4.0,73,0.00,,,0.00,Wunderground v.1.15,2015-07-05 23:47:00,
2015-07-05 16:52:00,75.3,66.0,29.82,NNW,347,0.0,0.0,73,0.00,,,0.00,Wunderground v.1.15,2015-07-05 23:52:00,
2015-07-05 16:57:00,75.4,66.5,29.82,NNW,347,0.0,0.0,74,0.00,,,0.00,Wunderground v.1.15,2015-07-05 23:57:00,
2015-07-05 17:02:00,75.4,66.5,29.82,NNW,347,0.0,0.0,74,0.00,,,0.00,Wunderground v.1.15,2015-07-06 00:02:00,
2015-07-05 17:07:00,75.5,66.6,29.82,NNW,347,0.0,0.0,74,0.00,,,0.00,Wunderground v.1.15,2015-07-06 00:07:00,
2015-07-05 17:13:00,75.6,66.3,29.81,NNW,347,0.0,0.0,73,0.00,,,0.00,Wunderground v.1.15,2015-07-06 00:13:00,
2015-07-05 17:18:00,75.6,66.3,29.81,NNW,347,0.0,0.0,73,0.00,,,0.00,Wunderground v.1.15,2015-07-06 00:18:00,
2015-07-05 17:23:00,75.6,66.7,29.80,NNW,347,0.0,0.0,74,0.00,,,0.00,Wunderground v.1.15,2015-07-06 00:23:00,
2015-07-05 17:28:00,75.5,66.6,29.80,NNW,347,0.0,0.0,74,0.00,,,0.00,Wunderground v.1.15,2015-07-06 00:28:00,
2015-07-05 17:33:00,75.5,66.6,29.80,NNW,347,0.0,0.0,74,0.00,,,0.00,Wunderground v.1.15,2015-07-06 00:33:00,
2015-07-05 17:38:00,75.5,66.6,29.79,NNW,347,0.0,0.0,74,0.00,,,0.00,Wunderground v.1.15,2015-07-06 00:38:00,
2015-07-05 17:43:00,75.5,66.6,29.79,NNW,347,0.0,0.0,74,0.00,,,0.00,Wunderground v.1.15,2015-07-06 00:43:00,
2015-07-05 17:48:00,75.6,66.7,29.79,NNW,347,0.0,0.0,74,0.00,,,0.00,Wunderground v.1.15,2015-07-06 00:48:00,
2015-07-05 17:53:00,75.8,66.5,29.79,NNW,348,0.0,0.0,73,0.00,,,0.00,Wunderground v.1.15,2015-07-06 00:53:00,
2015-07-05 17:58:00,76.1,66.8,29.79,NNW,348,0.0,0.0,73,0.00,,,0.00,Wunderground v.1.15,2015-07-06 00:58:00,
2015-07-05 18:03:00,76.3,66.6,29.78,NNE,26,1.0,2.0,72,0.00,,,0.00,Wunderground v.1.15,2015-07-06 01:03:00,
2015-07-05 18:08:00,76.5,66.8,29.78,NNE,26,0.0,2.0,72,0.00,,,0.00,Wunderground v.1.15,2015-07-06 01:08:00,
2015-07-05 18:13:00,76.7,66.6,29.78,NE,34,0.0,2.0,71,0.00,,,0.00,Wunderground v.1.15,2015-07-06 01:13:00,